Regional Weather Roundup
Issued by NWS Kansas City/Pleasant Hill, MO

Home | Current Version | Previous Version | Graphics & Text | Print | Product List | Glossary Off
Versions: 1 2 3 4 5 6 7 8 9 10 11 12 13 14 15 16 17 18 19 20 21 22 23 24 25 26 27 28 29 30 31 32 33 34 35 36 37 38 39 40 41 42 43 44 45 46 47 48 49 50

000
ASUS43 KEAX 230710
RWREAX

WEATHER ROUNDUP FOR EASTERN KANSAS AND NORTHWEST MISSOURI
NATIONAL WEATHER SERVICE KANSAS CITY/PLEASANT HILL MO
200 AM CDT SAT AUG 23 2014

KSZ040-057-103>105-MOZ028-029-037-043-230800-
...KANSAS CITY METROPOLITAN AREA...

CITY           SKY/WX    TMP DP  RH WIND       PRES   REMARKS
K.C. INTL      MOCLDY    78  69  73 SE8       29.91F
K.C. DOWNTOWN  CLEAR     81  70  69 CALM      29.90F
LEES SUMMIT    CLEAR     79  68  69 S5        29.93S
OLATHE - IXD   CLEAR     77  72  84 S9        29.92S
OLATHE - OJC   CLEAR     75  70  84 S5        29.92S
LAWRENCE       CLEAR     77  70  79 SE7       29.90S

$$

MOZ001>008-011>017-020>025-030>033-038>040-044>046-053-054-230800-
...NORTHERN AND CENTRAL MISSOURI...

CITY           SKY/WX    TMP DP  RH WIND       PRES   REMARKS
ST. JOSEPH     PTCLDY    80  77  90 SE8       29.89F
MOSBY          MOSUNNY   79  77  94 SE6       29.90F
WHITEMAN AFB   CLEAR     75  68  80 S3        29.93F
CLINTON        CLEAR     75  73  94 CALM      29.94F
SEDALIA        CLEAR     76  72  87 S6        29.95F
WARSAW         NOT AVBL
MARSHALL       PTCLDY    81  79  94 SE5       29.93F
CHILLICOTHE    NOT AVBL
MOBERLY        CLEAR     77  72  83 CALM      29.94F HAZE
KIRKSVILLE     CLEAR     77  75  93 SE6       29.94F

$$

MOZ041-047>049-056>058-063>065-088>090-097-230800-
...EASTERN AND SOUTHERN MISSOURI...

CITY           SKY/WX    TMP DP  RH WIND       PRES   REMARKS
ST. LOUIS INTL MOCLDY    81  77  88 E3        29.94S
SPIRIT OF STL  PTCLDY    78  76  93 CALM      29.92S
COLUMBIA       CLEAR     79  76  90 NW3       29.94F
JEFFERSON CITY CLEAR     77  74  90 CALM      29.92F
MEXICO         PTCLDY   N/A N/A N/A CALM      29.93F HAZE
HANNIBAL       PTCLDY    81  77  89 CALM      29.93F
ROLLA          CLEAR     77  69  76 SW9       29.96S
LEBANON        CLEAR     81  70  69 SW7       30.00S
OSAGE BEACH    CLEAR     79  70  73 CALM      29.96F
SPRINGFIELD    CLEAR     77  71  82 S8        29.99S
BRANSON        CLEAR     79  73  83 S6        30.02S
NEVADA         CLEAR     77  72  83 S7        29.96S
JOPLIN         CLEAR     81  71  71 S12       29.97R
WEST PLAINS    CLEAR     78  70  76 SW5       30.02S

$$

IAZ060-094-KSZ022-034>040-054-083-096-NEZ052-066-093-230800-
...KANSAS...SOUTHEAST NEBRASKA AND IOWA...

CITY           SKY/WX    TMP DP  RH WIND       PRES   REMARKS
TOPEKA         CLEAR     78  73  84 CALM      29.89S
MANHATTAN      PTCLDY    83  69  62 S7        29.87S
EMPORIA        CLEAR     76  71  85 S13       29.90F
CHANUTE        CLEAR     80  70  71 S10       29.93S
WICHITA        PTCLDY    81  64  56 S13       29.90R
OMAHA          TSTM      75  72  90 SW14      29.97R FOG
LINCOLN        CLOUDY    71  68  90 N12       29.96R
FALLS CITY     MOCLDY    76  74  93 E6        29.88S
LAMONI         MOCLDY    77  75  93 SE3       29.92F
DES MOINES     PTCLDY    78  75  90 E6        29.93S

$$




USA.gov is the U.S. government's official web portal to all federal, state and local government web resources and services.